Time,TemperatureF,DewpointF,PressureIn,WindDirection,WindDirectionDegrees,WindSpeedMPH,WindSpeedGustMPH,Humidity,HourlyPrecipIn,Conditions,Clouds,dailyrainin,SoftwareType,DateUTC
2013-04-30 00:10:00,54.7,54.1,29.70,West,270,0.0,-999.0,98,-99.99,,,0.00,Acu-Link.com,2013-04-30 04:10:00,
2013-04-30 00:25:00,54.3,53.7,29.70,NW,315,0.0,-999.0,98,-99.99,,,0.00,Acu-Link.com,2013-04-30 04:25:00,
2013-04-30 00:40:00,54.0,53.4,29.71,West,270,0.0,-999.0,98,-99.99,,,0.00,Acu-Link.com,2013-04-30 04:40:00,
2013-04-30 00:55:00,53.6,53.0,29.71,NW,315,0.0,-999.0,98,-99.99,,,0.00,Acu-Link.com,2013-04-30 04:55:00,
2013-04-30 01:10:00,53.4,52.8,29.70,NW,315,0.0,-999.0,98,-99.99,,,0.00,Acu-Link.com,2013-04-30 05:10:00,
2013-04-30 01:26:00,53.1,52.5,29.71,NW,315,0.0,-999.0,98,-99.99,,,0.00,Acu-Link.com,2013-04-30 05:26:00,
2013-04-30 01:41:00,52.9,52.4,29.70,West,270,0.0,-999.0,98,-99.99,,,0.00,Acu-Link.com,2013-04-30 05:41:00,
2013-04-30 01:56:00,52.5,52.0,29.71,West,270,0.0,-999.0,98,-99.99,,,0.00,Acu-Link.com,2013-04-30 05:56:00,
2013-04-30 02:11:00,51.8,51.3,29.69,NW,315,0.0,-999.0,98,-99.99,,,0.00,Acu-Link.com,2013-04-30 06:11:00,
2013-04-30 02:26:00,51.6,51.1,29.69,NW,315,0.0,-999.0,98,-99.99,,,0.00,Acu-Link.com,2013-04-30 06:26:00,
2013-04-30 02:41:00,51.3,50.8,29.69,NW,315,0.0,-999.0,98,-99.99,,,0.00,Acu-Link.com,2013-04-30 06:41:00,
2013-04-30 02:56:00,50.7,50.2,29.69,NW,315,0.0,-999.0,98,-99.99,,,0.00,Acu-Link.com,2013-04-30 06:56:00,
2013-04-30 03:11:00,50.5,50.0,29.69,West,270,0.0,-999.0,98,-99.99,,,0.00,Acu-Link.com,2013-04-30 07:11:00,
2013-04-30 03:26:00,50.2,49.7,29.69,West,270,0.0,-999.0,98,-99.99,,,0.00,Acu-Link.com,2013-04-30 07:26:00,
2013-04-30 03:42:00,50.0,49.5,29.70,NW,315,0.0,-999.0,98,-99.99,,,0.00,Acu-Link.com,2013-04-30 07:42:00,
2013-04-30 03:57:00,49.6,49.1,29.71,West,270,0.0,-999.0,98,-99.99,,,0.00,Acu-Link.com,2013-04-30 07:57:00,
2013-04-30 04:12:00,49.5,49.0,29.71,NW,315,0.0,-999.0,98,-99.99,,,0.00,Acu-Link.com,2013-04-30 08:12:00,
2013-04-30 04:27:00,49.3,48.8,29.72,NW,315,0.0,-999.0,98,-99.99,,,0.00,Acu-Link.com,2013-04-30 08:27:00,
2013-04-30 04:42:00,49.5,49.0,29.72,NW,315,0.0,-999.0,98,-99.99,,,0.00,Acu-Link.com,2013-04-30 08:42:00,
2013-04-30 04:57:00,51.1,50.6,29.72,WSW,247,0.0,-999.0,98,-99.99,,,0.00,Acu-Link.com,2013-04-30 08:57:00,
2013-04-30 05:13:00,50.5,50.0,29.72,West,270,0.0,-999.0,98,-99.99,,,0.00,Acu-Link.com,2013-04-30 09:13:00,
2013-04-30 05:28:00,50.4,49.9,29.72,West,270,0.0,-999.0,98,-99.99,,,0.00,Acu-Link.com,2013-04-30 09:28:00,
2013-04-30 05:43:00,50.5,50.0,29.73,WSW,247,0.0,-999.0,98,-99.99,,,0.00,Acu-Link.com,2013-04-30 09:43:00,
2013-04-30 05:58:00,50.0,49.5,29.74,NW,315,0.0,-999.0,98,-99.99,,,0.00,Acu-Link.com,2013-04-30 09:58:00,
2013-04-30 06:13:00,50.2,49.7,29.73,SW,225,0.0,-999.0,98,-99.99,,,0.00,Acu-Link.com,2013-04-30 10:13:00,
2013-04-30 06:28:00,50.2,49.7,29.74,SW,225,0.0,-999.0,98,-99.99,,,0.00,Acu-Link.com,2013-04-30 10:28:00,
2013-04-30 06:43:00,50.2,49.7,29.74,NW,315,0.0,-999.0,98,-99.99,,,0.00,Acu-Link.com,2013-04-30 10:43:00,
2013-04-30 06:58:00,50.5,50.0,29.75,WNW,292,0.0,-999.0,98,-99.99,,,0.00,Acu-Link.com,2013-04-30 10:58:00,
2013-04-30 07:13:00,50.9,50.4,29.77,NW,315,0.0,-999.0,98,-99.99,,,0.00,Acu-Link.com,2013-04-30 11:13:00,
2013-04-30 07:28:00,51.4,50.9,29.77,NW,315,0.0,-999.0,98,-99.99,,,0.00,Acu-Link.com,2013-04-30 11:28:00,
2013-04-30 07:44:00,51.8,51.3,29.77,NW,315,0.0,-999.0,98,-99.99,,,0.00,Acu-Link.com,2013-04-30 11:44:00,
2013-04-30 07:59:00,52.5,52.0,29.78,NE,45,0.0,-999.0,98,-99.99,,,0.00,Acu-Link.com,2013-04-30 11:59:00,
2013-04-30 08:14:00,53.4,52.8,29.79,SW,225,1.1,-999.0,98,-99.99,,,0.00,Acu-Link.com,2013-04-30 12:14:00,
2013-04-30 08:29:00,54.3,53.7,29.79,East,90,0.0,-999.0,98,-99.99,,,0.00,Acu-Link.com,2013-04-30 12:29:00,
2013-04-30 08:45:00,54.5,53.9,29.79,South,180,0.0,-999.0,98,-99.99,,,0.00,Acu-Link.com,2013-04-30 12:45:00,
2013-04-30 09:00:00,55.8,55.2,29.80,NW,315,0.0,-999.0,98,-99.99,,,0.00,Acu-Link.com,2013-04-30 13:00:00,
2013-04-30 09:15:00,55.8,55.2,29.81,NW,315,0.0,-999.0,98,-99.99,,,0.00,Acu-Link.com,2013-04-30 13:15:00,
2013-04-30 09:30:00,56.3,55.7,29.81,ESE,112,2.7,-999.0,98,-99.99,,,0.00,Acu-Link.com,2013-04-30 13:30:00,
2013-04-30 09:45:00,57.2,56.6,29.80,ESE,112,2.2,-999.0,98,-99.99,,,0.00,Acu-Link.com,2013-04-30 13:45:00,
2013-04-30 10:00:00,60.4,59.8,29.80,East,90,0.0,-999.0,98,-99.99,,,0.00,Acu-Link.com,2013-04-30 14:00:00,
2013-04-30 10:15:00,62.8,61.6,29.80,NE,45,2.7,-999.0,96,-99.99,,,0.00,Acu-Link.com,2013-04-30 14:15:00,
2013-04-30 10:30:00,65.1,63.3,29.80,SSE,157,1.7,-999.0,94,-99.99,,,0.00,Acu-Link.com,2013-04-30 14:30:00,
2013-04-30 10:45:00,67.3,64.6,29.80,South,180,1.1,-999.0,91,-99.99,,,0.00,Acu-Link.com,2013-04-30 14:45:00,
2013-04-30 11:01:00,67.5,64.5,29.80,SSE,157,1.1,-999.0,90,-99.99,,,0.00,Acu-Link.com,2013-04-30 15:01:00,
2013-04-30 11:16:00,67.5,64.5,29.79,NNE,22,1.1,-999.0,90,-99.99,,,0.00,Acu-Link.com,2013-04-30 15:16:00,
2013-04-30 11:31:00,70.3,65.6,29.79,NNW,337,1.1,-999.0,85,-99.99,,,0.00,Acu-Link.com,2013-04-30 15:31:00,
2013-04-30 11:46:00,72.0,65.8,29.79,West,270,4.2,-999.0,81,-99.99,,,0.00,Acu-Link.com,2013-04-30 15:46:00,
2013-04-30 12:01:00,73.0,65.7,29.78,ENE,67,3.2,-999.0,78,-99.99,,,0.00,Acu-Link.com,2013-04-30 16:01:00,
2013-04-30 12:16:00,73.6,65.9,29.78,ESE,112,5.3,-999.0,77,-99.99,,,0.00,Acu-Link.com,2013-04-30 16:16:00,
2013-04-30 12:32:00,73.0,65.7,29.78,NW,315,4.2,-999.0,78,-99.99,,,0.00,Acu-Link.com,2013-04-30 16:32:00,
2013-04-30 12:47:00,72.9,65.3,29.77,West,270,2.7,-999.0,77,-99.99,,,0.00,Acu-Link.com,2013-04-30 16:47:00,
2013-04-30 13:02:00,75.0,65.7,29.76,WNW,292,4.2,-999.0,73,-99.99,,,0.00,Acu-Link.com,2013-04-30 17:02:00,
2013-04-30 13:17:00,77.9,65.6,29.75,WNW,292,4.2,-999.0,66,-99.99,,,0.00,Acu-Link.com,2013-04-30 17:17:00,
2013-04-30 13:33:00,75.0,63.7,29.75,NE,45,1.7,-999.0,68,-99.99,,,0.00,Acu-Link.com,2013-04-30 17:33:00,
2013-04-30 13:48:00,78.1,65.8,29.75,SSW,202,6.3,-999.0,66,-99.99,,,0.00,Acu-Link.com,2013-04-30 17:48:00,
2013-04-30 14:03:00,77.7,62.2,29.75,South,180,6.3,-999.0,59,-99.99,,,0.00,Acu-Link.com,2013-04-30 18:03:00,
2013-04-30 14:18:00,78.8,64.2,29.74,South,180,7.8,-999.0,61,-99.99,,,0.00,Acu-Link.com,2013-04-30 18:18:00,
2013-04-30 14:33:00,79.0,63.4,29.74,North,0,1.7,-999.0,59,-99.99,,,0.00,Acu-Link.com,2013-04-30 18:33:00,
2013-04-30 14:48:00,79.3,63.2,29.73,West,270,0.0,-999.0,58,-99.99,,,0.00,Acu-Link.com,2013-04-30 18:48:00,
2013-04-30 15:03:00,80.1,64.0,29.74,West,270,3.2,-999.0,58,-99.99,,,0.00,Acu-Link.com,2013-04-30 19:03:00,
2013-04-30 15:19:00,78.4,62.9,29.74,SSE,157,0.0,-999.0,59,-99.99,,,0.00,Acu-Link.com,2013-04-30 19:19:00,
2013-04-30 15:34:00,80.2,63.1,29.74,SW,225,4.7,-999.0,56,-99.99,,,0.00,Acu-Link.com,2013-04-30 19:34:00,
2013-04-30 15:49:00,81.0,60.6,29.74,NNW,337,1.7,-999.0,50,-99.99,,,0.00,Acu-Link.com,2013-04-30 19:49:00,
2013-04-30 16:04:00,81.7,63.9,29.73,South,180,2.2,-999.0,55,-99.99,,,0.00,Acu-Link.com,2013-04-30 20:04:00,
2013-04-30 16:19:00,81.0,63.3,29.73,SSE,157,2.7,-999.0,55,-99.99,,,0.00,Acu-Link.com,2013-04-30 20:19:00,
2013-04-30 16:34:00,80.8,63.6,29.72,WSW,247,5.3,-999.0,56,-99.99,,,0.00,Acu-Link.com,2013-04-30 20:34:00,
2013-04-30 16:49:00,80.8,62.6,29.72,WNW,292,3.2,-999.0,54,-99.99,,,0.00,Acu-Link.com,2013-04-30 20:49:00,
2013-04-30 17:04:00,80.8,61.5,29.71,South,180,1.1,-999.0,52,-99.99,,,0.00,Acu-Link.com,2013-04-30 21:04:00,
2013-04-30 17:20:00,81.3,63.0,29.71,NNW,337,1.1,-999.0,54,-99.99,,,0.00,Acu-Link.com,2013-04-30 21:20:00,
2013-04-30 17:35:00,81.7,61.8,29.71,South,180,4.2,-999.0,51,-99.99,,,0.00,Acu-Link.com,2013-04-30 21:35:00,
2013-04-30 17:50:00,80.2,62.5,29.71,SSW,202,5.3,-999.0,55,-99.99,,,0.00,Acu-Link.com,2013-04-30 21:50:00,
2013-04-30 18:05:00,81.5,63.2,29.71,SSW,202,4.2,-999.0,54,-99.99,,,0.00,Acu-Link.com,2013-04-30 22:05:00,
2013-04-30 18:20:00,80.8,61.5,29.72,South,180,2.2,-999.0,52,-99.99,,,0.00,Acu-Link.com,2013-04-30 22:20:00,
2013-04-30 18:35:00,79.9,62.3,29.72,SW,225,2.7,-999.0,55,-99.99,,,0.00,Acu-Link.com,2013-04-30 22:35:00,
2013-04-30 18:50:00,78.4,61.9,29.73,SSW,202,3.2,-999.0,57,-99.99,,,0.00,Acu-Link.com,2013-04-30 22:50:00,
2013-04-30 19:05:00,77.7,61.7,29.73,SSW,202,3.2,-999.0,58,-99.99,,,0.00,Acu-Link.com,2013-04-30 23:05:00,
2013-04-30 19:20:00,77.2,62.2,29.72,SW,225,3.2,-999.0,60,-99.99,,,0.00,Acu-Link.com,2013-04-30 23:20:00,
2013-04-30 19:36:00,76.5,63.4,29.72,West,270,0.0,-999.0,64,-99.99,,,0.00,Acu-Link.com,2013-04-30 23:36:00,
2013-04-30 19:51:00,74.8,63.9,29.72,West,270,0.0,-999.0,69,-99.99,,,0.00,Acu-Link.com,2013-04-30 23:51:00,
2013-04-30 20:06:00,72.9,64.1,29.72,West,270,0.0,-999.0,74,-99.99,,,0.00,Acu-Link.com,2013-05-01 00:06:00,
2013-04-30 20:21:00,70.5,63.3,29.74,West,270,0.0,-999.0,78,-99.99,,,0.00,Acu-Link.com,2013-05-01 00:21:00,
2013-04-30 20:36:00,68.5,62.4,29.74,West,270,0.0,-999.0,81,-99.99,,,0.00,Acu-Link.com,2013-05-01 00:36:00,
2013-04-30 20:51:00,66.9,62.2,29.74,West,270,0.0,-999.0,85,-99.99,,,0.00,Acu-Link.com,2013-05-01 00:51:00,
2013-04-30 21:06:00,65.5,63.4,29.75,West,270,0.0,-999.0,93,-99.99,,,0.00,Acu-Link.com,2013-05-01 01:06:00,
2013-04-30 21:22:00,64.4,62.6,29.75,West,270,0.0,-999.0,94,-99.99,,,0.00,Acu-Link.com,2013-05-01 01:22:00,
2013-04-30 21:52:00,62.4,61.2,29.76,WNW,292,0.0,-999.0,96,-99.99,,,0.00,Acu-Link.com,2013-05-01 01:52:00,
2013-04-30 22:07:00,61.9,61.3,29.76,WNW,292,0.0,-999.0,98,-99.99,,,0.00,Acu-Link.com,2013-05-01 02:07:00,
2013-04-30 22:22:00,61.3,60.7,29.77,WNW,292,0.0,-999.0,98,-99.99,,,0.00,Acu-Link.com,2013-05-01 02:22:00,
2013-04-30 22:37:00,60.8,60.2,29.78,WNW,292,0.0,-999.0,98,-99.99,,,0.00,Acu-Link.com,2013-05-01 02:37:00,
2013-04-30 22:52:00,60.3,59.7,29.78,WNW,292,0.0,-999.0,98,-99.99,,,0.00,Acu-Link.com,2013-05-01 02:52:00,
2013-04-30 23:07:00,59.7,59.1,29.79,WNW,292,0.0,-999.0,98,-99.99,,,0.00,Acu-Link.com,2013-05-01 03:07:00,
2013-04-30 23:23:00,59.4,58.8,29.79,WNW,292,0.0,-999.0,98,-99.99,,,0.00,Acu-Link.com,2013-05-01 03:23:00,
2013-04-30 23:38:00,59.4,58.8,29.79,WNW,292,0.0,-999.0,98,-99.99,,,0.00,Acu-Link.com,2013-05-01 03:38:00,
2013-04-30 23:53:00,59.0,58.4,29.80,WNW,292,0.0,-999.0,98,-99.99,,,0.00,Acu-Link.com,2013-05-01 03:53:00,